Hourly Data Report for June 30, 2021

FISHER BRANCH (AUT)
MANITOBA
Current Station Operator: ECCC - MSC

51°05'00.100" N
97°33'16.200" W
253.00 m
50309J6
71442
WSZ

Download Data

Hourly Data (June 2021)
Hourly Data Report for June 30, 2021
TIME
LST
Temp Definition
°C
Dew Point Definition
°C
Rel Hum Definition
%
Precip. Amount Definition
mm

Wind Dir Definition
10's deg

Wind Spd Definition
km/h
Visibility Definition
km
Stn Press Definition
kPa
Hmdx Definition


Wind Chill Definition


Weather Definition


00:00 20.4 16.6 79 0.0 24 5   98.75 25   LegendNANA
01:00 19.7 15.4 76 0.0 18 7   98.74     LegendNANA
02:00 17.0 15.0 88 0.0 11 3   98.74     LegendNANA
03:00 15.9 14.5 91 0.0   0   98.75     LegendNANA
04:00 15.2 14.0 93 0.0 30 3   98.80     LegendNANA
05:00 14.3 13.0 92 0.0 0 1   98.82     LegendNANA
06:00 17.9 16.1 89 0.0 13 2   98.85     LegendNANA
07:00 21.2 16.8 76 0.0 6 8   98.88 26   LegendNANA
08:00 23.0 16.9 68 0.0 6 9   98.92 28   LegendNANA
09:00 25.2 16.6 59 0.0 8 13   98.95 30   LegendNANA
10:00 26.8 16.2 52 0.0 7 15   98.95 32   LegendNANA
11:00 27.9 13.6 41 0.0 7 11   98.96 31   LegendNANA
12:00 28.8 10.2 31 0.0 10 15   98.98 30   LegendNANA
13:00 30.2 11.2 31 0.0 10 16   98.97 32   LegendNANA
14:00 30.3 9.9 28 0.0 6 13   98.96 32   LegendNANA
15:00 29.5 9.2 28 0.0 36 11   98.98 30   LegendNANA
16:00 30.3 11.9 32 0.0 2 11   98.96 33   LegendNANA
17:00 29.6 11.3 32 0.0 2 11   98.97 32   LegendNANA
18:00 28.9 9.8 30 0.0 36 11   98.93 30   LegendNANA
19:00 27.5 10.7 35 0.0 4 10   98.95 29   LegendNANA
20:00 24.9 11.4 43 0.0 3 5   98.96 27   LegendNANA
21:00 22.3 11.5 50 0.0 2 6   98.98     LegendNANA
22:00 20.0 10.9 56 0.0 1 6   98.99     LegendNANA
23:00 19.0 11.4 62 0.0 2 6   99.02     LegendNANA

Notes on Data Quality.

Legend

  • E = Estimated
  • M = Missing
  • NA = Not Available*
  • [empty] = Indicates an unobserved value
Date modified: